Weather in Akbash

Russia / Sverdlovsk Oblast     56°22′59″N   59°01′44″E
temp.,
°C
wind,
m/s
gust,
m/s
humid.,
%
clouds,
%
prec.,
mm/h
press.,
hPa
HPBL,
m
4 march, thu
thu423:00−5sw3797100 1.2 998325
02:00−5sw3896100 0.8 997377
05:00−6sw3896100 1.5 997379
08:00−7w4895100 0.7 997465
11:00−8w5990100 0.9 998626
14:00−6wsw5987100 0.3 998908
17:00−6sw4989100 0.4 998843
20:00−8ssw41293100 0.3 997590
5 march, fri
fri523:00−7ssw61494100 1.0 995988
02:00−5sw71693100 1.3 9911250
05:00−5wsw61586100 2.8 9901083
08:00−7wsw71591100 0.3 993813
11:00−7wsw61289100 0.4 996807
14:00−5wsw61285100 0.1 997950
17:00−6w598499 0.1 1000890
20:00−10w3109493 0.1 1002378
6 march, sat
sat623:00−12w3109596 0.1 1006387
02:00−17w229788 0.0 100828
05:00−18sw239987 0.1 101083
08:00−17sw3998100 0.1 1010303
11:00−13sw4993100 0.4 1010467
14:00−8wsw5989100 0.3 1009871
17:00−8wsw4890100 0.5 1009791
20:00−11wsw2796100 0.3 1009272
7 march, sun
sun723:00−14w129898 0.4 101020
02:00−17n119892 0.1 100920
05:00−18wnw009896 0.1 100920
08:00−20wnw1110070 0.0 100920
11:00−15w239185 0.1 1009390
14:00−13w3587100 0.1 1010657
17:00−13w3686100 0.1 1010810
20:00−17wsw2698100 0.1 1012143
8 march, mon
mon823:00−22sw2210092 0.1 101320
02:00−23s2310088 0.0 101238
05:00−23sse239991 0.0 101062
08:00−18sse31197100 0.2 1007408
11:00−12ssw51093100 1.4 1004799
14:00−9ssw51092100 0.9 10021019
17:00−8wsw71379100 1.8 10021449
20:00−11sw3128992 0.0 1005452